Home   Weather   Key West   Past weeks

Flag for USA Past Weather in Key West, Florida, USA — Yesterday and Last 2 Weeks

Now
80 °F

Passing clouds.


Feels Like: 86 °F
Forecast: 78 / 84 °F
Wind: 9 mph from Southeast

Location: Key West International Airport

Current Time: Apr 28, 2017 at 2:25:21 am

Latest Report: Apr 28, 2017 at 1:53 am


Visibility: 10 mi

Pressure: 29.95 "Hg

Humidity: 90%

Dew Point: 77 °F

Location of Key WestLocation

Past Weather in Key West — Graph

°F

Key West Temperature Yesterday

Maximum temperature yesterday: 84 °F (at 1:53 pm)
Minimum temperature yesterday: 79 °F (at 12:53 am)
Average temperature yesterday: 81 °F

High & Low Weather Summary for the Past Weeks

 TemperatureHumidityPressure
High84 °F (Apr 27, 1:53 pm)97% (Apr 13, 8:12 am)30.17 "Hg (Apr 13, 8:12 am)
Low70 °F (Apr 13, 8:12 am)54% (Apr 14, 2:53 pm)29.76 "Hg (Apr 23, 4:53 pm)
Average77 °F79%29.98 "Hg
* Reported Apr 13 12:53 am — Apr 28 12:53 am, Key West, Weather by CustomWeather, © 2017

Note: Actual official high and low records may vary slightly from our data, if they occured in-between our weather recording intervals... More about our weather records

Advertising

Key West Weather History for the Previous 24 Hours

Scroll right to see more
 ConditionsComfort  
Time TempWeatherWind HumidityBarometerVisibility
12:53 am
Fri, Apr 28
80 °FPassing clouds.10 mph94%29.96 "Hg10 mi
11:53 pm
Thu, Apr 27
80 °FPassing clouds.10 mph90%29.97 "Hg10 mi
10:53 pm80 °FPassing clouds.13 mph87%29.96 "Hg10 mi
9:53 pm80 °FClear.13 mph90%29.94 "Hg10 mi
8:53 pm81 °FPassing clouds.16 mph88%29.92 "Hg10 mi
7:53 pm81 °FPassing clouds.17 mph88%29.92 "Hg10 mi
6:53 pm82 °FSunny.14 mph82%29.90 "Hg10 mi
5:53 pm83 °FSunny.13 mph79%29.89 "Hg10 mi
4:53 pm84 °FSunny.12 mph77%29.90 "Hg10 mi
3:53 pm84 °FSunny.9 mph77%29.92 "Hg10 mi
2:53 pm84 °FSunny.10 mph77%29.95 "Hg10 mi
1:53 pm84 °FSunny.9 mph77%29.96 "Hg10 mi
12:53 pm83 °FPassing clouds.10 mph77%29.96 "Hg10 mi
11:53 am83 °FSunny.9 mph79%29.97 "Hg10 mi
10:53 am81 °FSunny.7 mph79%29.96 "Hg10 mi
9:53 am81 °FSunny.6 mph79%29.94 "Hg10 mi
8:53 am81 °FSunny.7 mph79%29.93 "Hg10 mi
7:53 am80 °FSunny.8 mph81%29.91 "Hg10 mi
6:53 am80 °FClear.9 mph81%29.88 "Hg10 mi
5:53 am80 °FClear.7 mph85%29.87 "Hg10 mi
4:53 am80 °FClear.9 mph87%29.86 "Hg10 mi
3:53 am80 °FClear.8 mph90%29.86 "Hg10 mi
2:53 am79 °FClear.10 mph90%29.86 "Hg10 mi
Weather by CustomWeather, © 2017

See weather overviewHow to use our weather pages